Content
SEND FEEDBACK

Daily
Averages
Monthly
Summary
United States of America

ST. LOUIS, MISSOURI


Home > North America > United States > Missouri
Elevation: 535 feet     Latitude: 38 45N     Longitude: 090 22W

WEATHER
 
SELECT A DAY
Number of Records: 199,924;   Date Range: 1/1/95 - 10/30/14
 
SHARE

PRINT THIS DATA

[ ← Previous Day ]
WEATHER ALMANAC - NOVEMBER 20, 2013
[ Next Day → ]
[ °C ]   °F
Weather ElementAverageHighLow
Temperature42 °F50 °F (8:54 pm)35.1 °F (6:54 am)
Dewpoint32.8 °F41 °F (11:54 pm)27 °F (3:54 am)
Humidity70.4 %86 % (1:54 pm)58 % (10:54 am)
Barometer30.13 in30.22 in (2:54 am)30.04 in (4:54 pm)
Wind Speed6 mph9.2 mph (3:54 am)
Wind Gust20.7 mph (7:54 pm)
Weather ElementAverage
Visibility9.4 mi
Wind DirectionESE (115.2 °)

Weather ElementTotal
Precipitation0.14 in
Heating Degree Days22.5 (Base 65)
Averaged from 23 records on November 20, 2013
WEATHER CONDITIONS BREAKOUT
WIND DIRECTION BREAKOUT
WEATHER BY HOUR - NOVEMBER 20, 2013
[ °C ]   °F
Local TimeTemperatureDewpointHumidityBarometerVisibilityWind DirectionWind SpeedGust SpeedPrecipitationEventsConditions
1:54 AM37.9 °F28.0 °F68 %30.21 in10.0 miESE (110°)6.9 mphOvercast
2:54 AM37.9 °F28.0 °F68 %30.22 in10.0 miSE (130°)8.1 mphOvercast
3:54 AM37.9 °F27.0 °F65 %30.19 in10.0 miESE (110°)9.2 mphOvercast
4:54 AM37.0 °F27.0 °F67 %30.19 in10.0 miESE (120°)6.9 mphScattered Clouds
5:54 AM36.0 °F27.0 °F70 %30.18 in10.0 miSE (140°)3.5 mphClear
6:54 AM35.1 °F27.0 °F72 %30.18 in10.0 miEast (100°)4.6 mphClear
7:54 AM37.0 °F28.0 °F70 %30.19 in10.0 miSE (130°)4.6 mphMostly Cloudy
8:54 AM39.0 °F28.9 °F67 %30.18 in10.0 miSE (140°)5.8 mphPartly Cloudy
9:54 AM41.0 °F28.9 °F62 %30.17 in10.0 miSE (140°)4.6 mphMostly Cloudy
10:54 AM43.0 °F28.9 °F58 %30.17 in10.0 miSouth (180°)3.5 mph0.00 inOvercast
11:54 AM41.0 °F33.1 °F73 %30.17 in9.0 miCalm0.02 inRainLight Rain
12:54 PM39.9 °F35.1 °F83 %30.13 in5.0 miENE (70°)4.6 mph0.05 inRainLight Rain
1:54 PM39.9 °F36.0 °F86 %30.09 in7.0 miEast (100°)8.1 mph0.06 inRainLight Rain
2:54 PM41.0 °F37.0 °F86 %30.07 in9.0 miESE (110°)6.9 mph0.00 inOvercast
3:54 PM42.1 °F37.0 °F82 %30.06 in6.0 miEast (100°)6.9 mph0.00 inHaze
4:54 PM43.0 °F36.0 °F76 %30.04 in10.0 miESE (110°)5.8 mphOvercast
5:54 PM44.1 °F37.0 °F76 %30.06 in10.0 miESE (120°)8.1 mph0.00 inOvercast
6:54 PM46.0 °F36.0 °F68 %30.06 in10.0 miSE (140°)5.8 mph0.00 inOvercast
7:54 PM48.0 °F36.0 °F63 %30.05 in10.0 miSE (140°)9.2 mph20.7 mphOvercast
8:54 PM50.0 °F37.0 °F61 %30.05 in10.0 miSSE (160°)8.1 mph18.4 mph0.01 inOvercast
9:54 PM50.0 °F37.0 °F61 %30.06 in10.0 miSSE (160°)8.1 mphOvercast
10:54 PM50.0 °F37.9 °F63 %30.08 in10.0 miVariable4.6 mphOvercast
11:54 PM48.9 °F41.0 °F74 %30.10 in10.0 miSE (140°)3.5 mph0.00 inOvercast
Hourly data recorded from KSUS, located miles away from St. Louis, Missouri







STORIES FROM OUR PARTNERS